Home   Weather   Markham   Past weeks

Flag for Canada Past Weather in Markham, Ontario, Canada — Yesterday and Last 2 Weeks

Now
28 °F

Passing clouds.


Feels Like: 28 °F
Forecast: 28 / 33 °F
Wind: No wind

Location: Toronto Buttonville

Current Time: Jan 16, 2017 at 11:57:54 pm

Latest Report: Jan 16, 2017 at 11:00 pm


Visibility: 12 mi

Pressure: 30.24 "Hg

Humidity: 74%

Dew Point: 21 °F

Location of MarkhamLocation

Past Weather in Markham — Graph

°F

Markham Temperature Yesterday

Maximum temperature yesterday: 30 °F (at 1:00 pm)
Minimum temperature yesterday: 19 °F (at 12:00 am)
Average temperature yesterday: 27 °F

High & Low Weather Summary for the Past Weeks

 TemperatureHumidityPressure
High46 °F (Jan 12, 3:00 am)100% (Jan 2, 11:00 pm)30.81 "Hg (Jan 2, 11:00 pm)
Low7 °F (Jan 7, 5:00 am)48% (Jan 16, 4:00 pm)29.41 "Hg (Jan 4, 5:00 am)
Average26 °F77%30.10 "Hg
* Reported Jan 1 11:00 pm — Jan 16 11:00 pm, Markham, Weather by CustomWeather, © 2017

Note: Actual official high and low records may vary slightly from our data, if they occured in-between our weather recording intervals... More about our weather records

Advertising

Markham Weather History for the Previous 24 Hours

Scroll right to see more
 ConditionsComfort  
Time TempWeatherWind HumidityBarometerVisibility
11:00 pm
Mon, Jan 16
28 °FPassing clouds.No wind74%30.24 "Hg12 mi
10:00 pm32 °FPassing clouds.5 mph64%30.24 "Hg15 mi
9:00 pm30 °FMostly cloudy.2 mph69%30.27 "Hg15 mi
8:00 pm30 °FPassing clouds.No wind69%30.27 "Hg15 mi
7:00 pm34 °FPassing clouds.No wind56%30.28 "Hg15 mi
6:00 pm34 °FPassing clouds.3 mph56%30.28 "Hg15 mi
5:00 pm36 °FPartly sunny.3 mph52%30.28 "Hg15 mi
4:00 pm37 °FPartly sunny.3 mph48%30.27 "Hg15 mi
3:00 pm37 °FPartly sunny.3 mph52%30.27 "Hg15 mi
2:00 pm36 °FOvercast.8 mph56%30.29 "Hg15 mi
1:00 pm36 °FPartly sunny.8 mph60%30.30 "Hg15 mi
12:00 pm34 °FPartly sunny.9 mph60%30.32 "Hg12 mi
11:00 am32 °FPartly sunny.6 mph64%30.35 "Hg10 mi
10:00 am28 °FPartly sunny.7 mph74%30.36 "Hg10 mi
9:00 am27 °FPartly sunny.6 mph74%30.36 "Hg10 mi
8:00 am23 °FPartly sunny.3 mph86%30.35 "Hg8 mi
7:00 am23 °FClear.3 mph86%30.35 "Hg8 mi
6:00 am23 °FClear.3 mph86%30.35 "Hg8 mi
5:00 am23 °FClear.No wind86%30.34 "Hg10 mi
4:00 am23 °FClear.2 mph86%30.36 "Hg10 mi
3:00 am23 °FClear.5 mph86%30.36 "Hg10 mi
2:00 am23 °FClear.No wind86%30.36 "Hg10 mi
1:00 am25 °FClear.2 mph80%30.36 "Hg10 mi
12:00 am25 °FClear.5 mph80%30.37 "Hg12 mi
11:00 pm
Sun, Jan 15
27 °FClear.5 mph74%30.37 "Hg15 mi
Weather by CustomWeather, © 2017

See weather overviewHow to use our weather pages